sat.trackr.live / text

‹ back to catalog

STARLINK-30289

NORAD 57653 · 2023-122X

PAYLOAD ACTIVE UNKNOWN

§ Identity

Operator
Country
US
Launch date
2023-08-17
Launch site
AFETR
Launch vehicle
Mass (kg)
RCS (m²)

Purposes: comms

External: N2YO · Heavens-Above · Gunter

§ Orbital elements

Epoch: 2026-05-25T00:07:49.768896Z

Period
94.27 min
Inclination
43.0048°
Eccentricity
0.0001643
Mean motion
15.27571203 rev/d
Perigee alt
481.9 km
Apogee alt
484.2 km
Semi-major
6,861.2 km
B*
4.8201e-6
RAAN
10.8523°
Arg perigee
249.6299°
Mean anomaly
110.4376°
Rev number
15,399

§ Raw data

STARLINK-302891 57653U 23122X   26145.00543714 -.00000130  00000+0  48201-5 0  99922 57653  43.0048  10.8523 0001643 249.6299 110.4376 15.27571203153993

JSON: /api/v1/satellites/57653 · /tle

For live sub-satellite position, see the globe view (requires WebGL).

§ Visibility from observer

Set your observer location to see the next 7 days of passes ≥ 10°. The values pass through the URL so the page stays shareable.

No JS? Fill the form by hand. The geolocation button needs JavaScript.